Tracking 28052 objects as of 23-Sep-2023
HD Live streaming from Space Station
objects crossing your sky now

CZ-4 DEB

Track CZ-4 DEB now!
10-day predictions


NORAD ID: 20891
Int'l Code: 1990-081BB
Perigee: 865.7 km
Apogee: 1,181.9 km
Inclination: 99.1 °
Period: 105.5 minutes
Semi major axis: 7394 km
RCS: 0.0314 m2 (small)
Launch date: September 3, 1990
Source: People's Republic of China (PRC)
Launch site: Taiyaun Space Center, China (TSC)

Note: This is SATELLITE DEBRIS
Your satellite tracking list
Your tracking list is empty




NASA's NSSDC Master Catalog

Two Line Element Set (TLE):
1 20891U 90081BB  23266.18645880  .00000247  00000-0  30461-3 0  9997
2 20891  99.1065 345.1897 0213810 340.9290  80.3257 13.65242349639834
Source of the keplerian elements: AFSPC